"read_dt","SO2 (ppb)","flags","PMT voltage (V)","lamp voltage (V)","lamp intensity (Hz)","internal temp (C)","react chamber temp (C)","sample flow (l/min)","pres (mmHg)","SO2 bkg (ppb)","SO2 coefficient"
2015-08-19 00:00:00,1801E-3,5C000400,-0724,0820,12150,031.4,045.6,0.252,751.7,01.17,0.508
2015-08-19 00:01:00,1925E-3,5C000400,-0724,0820,12120,031.4,045.6,0.252,751.7,01.17,0.508
2015-08-19 00:02:00,1916E-3,5C000400,-0724,0821,12258,031.4,045.6,0.252,751.7,01.17,0.508
2015-08-19 00:03:00,1922E-3,5C000400,-0724,0822,12412,031.4,045.6,0.252,751.6,01.17,0.508
2015-08-19 00:04:00,1887E-3,5C000400,-0724,0821,12267,031.3,045.5,0.252,751.6,01.17,0.508
2015-08-19 00:05:00,1752E-3,5C000400,-0724,0821,12319,031.4,045.6,0.251,751.6,01.17,0.508
2015-08-19 00:06:00,1719E-3,5C000400,-0724,0821,12273,031.3,045.6,0.251,751.6,01.17,0.508
2015-08-19 00:07:00,1806E-3,5C000400,-0724,0821,12191,031.4,045.6,0.251,751.6,01.17,0.508
2015-08-19 00:08:00,1863E-3,5C000400,-0724,0821,12300,031.4,045.6,0.251,751.5,01.17,0.508
2015-08-19 00:09:00,1690E-3,5C000400,-0724,0822,12427,031.4,045.6,0.252,751.5,01.17,0.508
2015-08-19 00:10:00,1798E-3,5C000400,-0724,0822,12249,031.4,045.6,0.252,751.5,01.17,0.508
2015-08-19 00:11:00,1857E-3,5C000400,-0724,0820,12208,031.4,045.6,0.252,751.5,01.17,0.508
2015-08-19 00:12:00,1712E-3,5C000400,-0724,0821,12233,031.3,045.6,0.252,751.5,01.17,0.508
2015-08-19 00:13:00,1828E-3,5C000400,-0724,0820,12183,031.3,045.6,0.252,751.5,01.17,0.508
2015-08-19 00:14:00,1775E-3,5C000400,-0724,0822,12285,031.3,045.6,0.252,751.5,01.17,0.508
2015-08-19 00:15:00,1858E-3,5C000400,-0724,0821,12275,031.4,045.6,0.252,751.5,01.17,0.508
2015-08-19 00:16:00,1889E-3,5C000400,-0724,0821,12251,031.3,045.6,0.252,751.5,01.17,0.508
2015-08-19 00:17:00,1971E-3,5C000400,-0724,0821,12254,031.4,045.6,0.252,751.4,01.17,0.508
2015-08-19 00:18:00,1728E-3,5C000400,-0724,0821,12258,031.4,045.6,0.252,751.4,01.17,0.508
2015-08-19 00:19:00,1781E-3,5C000400,-0724,0821,12284,031.4,045.6,0.252,751.4,01.17,0.508
2015-08-19 00:20:00,1757E-3,5C000400,-0724,0821,12442,031.4,045.6,0.252,751.4,01.17,0.508
2015-08-19 00:21:00,1827E-3,5C000400,-0724,0820,12124,031.4,045.6,0.252,751.4,01.17,0.508
2015-08-19 00:22:00,1751E-3,5C000400,-0724,0821,12310,031.3,045.6,0.252,751.4,01.17,0.508
2015-08-19 00:23:00,1883E-3,5C000400,-0724,0821,12292,031.4,045.6,0.252,751.4,01.17,0.508
2015-08-19 00:24:00,1732E-3,5C000400,-0724,0821,12210,031.3,045.6,0.252,751.3,01.17,0.508
2015-08-19 00:25:00,1677E-3,5C000400,-0724,0820,12163,031.3,045.6,0.252,751.3,01.17,0.508
2015-08-19 00:26:00,1883E-3,5C000400,-0724,0821,12412,031.4,045.6,0.252,751.3,01.17,0.508
2015-08-19 00:27:00,1850E-3,5C000400,-0724,0821,12352,031.3,045.6,0.252,751.3,01.17,0.508
2015-08-19 00:28:00,1754E-3,5C000400,-0724,0821,12187,031.3,045.6,0.251,751.3,01.17,0.508
2015-08-19 00:29:00,1825E-3,5C000400,-0724,0820,12372,031.3,045.6,0.251,751.3,01.17,0.508
2015-08-19 00:30:00,1834E-3,5C000400,-0724,0820,12327,031.3,045.6,0.251,751.3,01.17,0.508
2015-08-19 00:31:00,1801E-3,5C000400,-0724,0820,12195,031.3,045.6,0.252,751.3,01.17,0.508
2015-08-19 00:32:00,1837E-3,5C000400,-0724,0821,12253,031.3,045.6,0.252,751.2,01.17,0.508
2015-08-19 00:33:00,1679E-3,5C000400,-0724,0821,12316,031.4,045.6,0.252,751.2,01.17,0.508
2015-08-19 00:34:00,1813E-3,5C000400,-0724,0821,12040,031.4,045.6,0.252,751.2,01.17,0.508
2015-08-19 00:35:00,1862E-3,5C000400,-0724,0821,12202,031.3,045.6,0.252,751.2,01.17,0.508
2015-08-19 00:36:00,1746E-3,5C000400,-0724,0821,12314,031.3,045.6,0.252,751.2,01.17,0.508
2015-08-19 00:37:00,1751E-3,5C000400,-0724,0821,12226,031.3,045.6,0.252,751.2,01.17,0.508
2015-08-19 00:38:00,1867E-3,5C000400,-0724,0821,12323,031.3,045.6,0.252,751.2,01.17,0.508
2015-08-19 00:39:00,1740E-3,5C000400,-0724,0821,12321,031.3,045.6,0.252,751.2,01.17,0.508
2015-08-19 00:40:00,1865E-3,5C000400,-0724,0821,12272,031.3,045.6,0.252,751.1,01.17,0.508
2015-08-19 00:41:00,1882E-3,5C000400,-0724,0821,12165,031.3,045.5,0.252,751.1,01.17,0.508
2015-08-19 00:42:00,1857E-3,5C000400,-0724,0821,12178,031.3,045.6,0.252,751.1,01.17,0.508
2015-08-19 00:43:00,1735E-3,5C000400,-0724,0820,12375,031.4,045.6,0.252,751.2,01.17,0.508
2015-08-19 00:44:00,1838E-3,5C000400,-0724,0821,12267,031.4,045.6,0.252,751.1,01.17,0.508
2015-08-19 00:45:00,1655E-3,5C000400,-0724,0820,12371,031.4,045.6,0.252,751.2,01.17,0.508
2015-08-19 00:46:00,1774E-3,5C000400,-0724,0821,12145,031.4,045.6,0.252,751.2,01.17,0.508
2015-08-19 00:47:00,1831E-3,5C000400,-0724,0821,12206,031.4,045.6,0.252,751.2,01.17,0.508
2015-08-19 00:48:00,1745E-3,5C000400,-0724,0820,12139,031.4,045.6,0.251,751.2,01.17,0.508
2015-08-19 00:49:00,1826E-3,5C000400,-0724,0821,12404,031.5,045.6,0.251,751.1,01.17,0.508
2015-08-19 00:50:00,1859E-3,5C000400,-0724,0822,12216,031.5,045.6,0.252,751.1,01.17,0.508
2015-08-19 00:51:00,1798E-3,5C000400,-0724,0820,12284,031.5,045.6,0.252,751.1,01.17,0.508
2015-08-19 00:52:00,1860E-3,5C000400,-0724,0821,12328,031.6,045.6,0.252,751.1,01.17,0.508
2015-08-19 00:53:00,1780E-3,5C000400,-0724,0821,12294,031.6,045.6,0.252,751.1,01.17,0.508
2015-08-19 00:54:00,1691E-3,5C000400,-0724,0821,12162,031.6,045.6,0.251,751.1,01.17,0.508
2015-08-19 00:55:00,1811E-3,5C000400,-0724,0820,12250,031.7,045.6,0.251,751.1,01.17,0.508
2015-08-19 00:56:00,1782E-3,5C000400,-0724,0821,12297,031.7,045.6,0.251,751.1,01.17,0.508
2015-08-19 00:57:00,1824E-3,5C000400,-0724,0821,12241,031.7,045.6,0.251,751.1,01.17,0.508
2015-08-19 00:58:00,1879E-3,5C000400,-0724,0822,12195,031.8,045.6,0.251,751.1,01.17,0.508
2015-08-19 00:59:00,1817E-3,5C000400,-0724,0821,12394,031.8,045.6,0.251,751.1,01.17,0.508
2015-08-19 01:00:00,1836E-3,5C000400,-0724,0822,12228,031.8,045.6,0.251,751.0,01.17,0.508
2015-08-19 01:01:00,1777E-3,5C000400,-0724,0822,12380,031.8,045.6,0.251,751.0,01.17,0.508
2015-08-19 01:02:00,1752E-3,5C000400,-0724,0821,12299,031.8,045.6,0.251,751.0,01.17,0.508
2015-08-19 01:03:00,1885E-3,5C000400,-0724,0822,12266,031.9,045.6,0.251,751.0,01.17,0.508
2015-08-19 01:04:00,1915E-3,5C000400,-0724,0821,12218,031.9,045.6,0.251,751.0,01.17,0.508
2015-08-19 01:05:00,1799E-3,5C000400,-0724,0820,12198,031.9,045.6,0.251,751.0,01.17,0.508
2015-08-19 01:06:00,1812E-3,5C000400,-0724,0821,12337,031.9,045.6,0.251,751.0,01.17,0.508
2015-08-19 01:07:00,1776E-3,5C000400,-0724,0821,12290,031.9,045.6,0.251,751.0,01.17,0.508
2015-08-19 01:08:00,1640E-3,5C000400,-0724,0821,12254,031.9,045.6,0.251,751.0,01.17,0.508
2015-08-19 01:09:00,1906E-3,5C000400,-0724,0822,12308,031.9,045.6,0.251,750.9,01.17,0.508
2015-08-19 01:10:00,1792E-3,5C000400,-0724,0821,12282,032.0,045.6,0.251,750.9,01.17,0.508
2015-08-19 01:11:00,1741E-3,5C000400,-0724,0822,12176,032.0,045.6,0.250,750.9,01.17,0.508
2015-08-19 01:12:00,1704E-3,5C000400,-0724,0822,12279,032.0,045.6,0.251,750.9,01.17,0.508
2015-08-19 01:13:00,1776E-3,5C000400,-0724,0821,12310,032.0,045.6,0.251,750.9,01.17,0.508
2015-08-19 01:14:00,1857E-3,5C000400,-0724,0821,12128,032.0,045.6,0.250,750.9,01.17,0.508
2015-08-19 01:15:00,1796E-3,5C000400,-0724,0820,12217,032.0,045.6,0.251,750.9,01.17,0.508
2015-08-19 01:16:00,1782E-3,5C000400,-0724,0822,12321,032.0,045.6,0.250,750.9,01.17,0.508
2015-08-19 01:17:00,1813E-3,5C000400,-0724,0822,12355,032.0,045.6,0.250,750.9,01.17,0.508
2015-08-19 01:18:00,1744E-3,5C000400,-0724,0822,12421,032.0,045.6,0.251,750.9,01.17,0.508
2015-08-19 01:19:00,1731E-3,5C000400,-0724,0820,12371,032.0,045.6,0.250,750.9,01.17,0.508
2015-08-19 01:20:00,1703E-3,5C000400,-0724,0821,12218,032.0,045.6,0.250,750.9,01.17,0.508
2015-08-19 01:21:00,1799E-3,5C000400,-0724,0821,12353,032.0,045.6,0.250,750.8,01.17,0.508
2015-08-19 01:22:00,1788E-3,5C000400,-0724,0822,12239,032.0,045.6,0.250,750.8,01.17,0.508
2015-08-19 01:23:00,1756E-3,5C000400,-0724,0821,12425,032.0,045.6,0.251,750.8,01.17,0.508
2015-08-19 01:24:00,1799E-3,5C000400,-0724,0821,12150,032.0,045.6,0.251,750.7,01.17,0.508
2015-08-19 01:25:00,1760E-3,5C000400,-0724,0821,12321,032.0,045.6,0.251,750.7,01.17,0.508
2015-08-19 01:26:00,1782E-3,5C000400,-0724,0821,12333,032.0,045.6,0.251,750.7,01.17,0.508
2015-08-19 01:27:00,1658E-3,5C000400,-0724,0820,12351,032.0,045.6,0.250,750.8,01.17,0.508
2015-08-19 01:28:00,1824E-3,5C000400,-0724,0821,12201,032.0,045.6,0.251,750.8,01.17,0.508
2015-08-19 01:29:00,1655E-3,5C000400,-0724,0821,12319,032.0,045.6,0.250,750.8,01.17,0.508
2015-08-19 01:30:00,1688E-3,5C000400,-0724,0821,12223,032.0,045.6,0.250,750.8,01.17,0.508
2015-08-19 01:31:00,1759E-3,5C000400,-0724,0820,12211,032.1,045.6,0.250,750.7,01.17,0.508
2015-08-19 01:32:00,1956E-3,5C000400,-0724,0821,12116,032.0,045.6,0.250,750.7,01.17,0.508
2015-08-19 01:33:00,1757E-3,5C000400,-0724,0822,12336,032.0,045.6,0.251,750.7,01.17,0.508
2015-08-19 01:34:00,1821E-3,5C000400,-0724,0821,12386,032.0,045.6,0.250,750.7,01.17,0.508
2015-08-19 01:35:00,1785E-3,5C000400,-0724,0821,12310,032.0,045.6,0.250,750.7,01.17,0.508
2015-08-19 01:36:00,1796E-3,5C000400,-0724,0822,12191,032.0,045.6,0.250,750.7,01.17,0.508
2015-08-19 01:37:00,1958E-3,5C000400,-0724,0821,12225,032.0,045.6,0.250,750.7,01.17,0.508
2015-08-19 01:38:00,1718E-3,5C000400,-0724,0820,12334,032.0,045.6,0.251,750.6,01.17,0.508
2015-08-19 01:39:00,1689E-3,5C000400,-0724,0821,12355,032.0,045.6,0.250,750.7,01.17,0.508
2015-08-19 01:40:00,1795E-3,5C000400,-0724,0821,12328,032.0,045.6,0.250,750.6,01.17,0.508
2015-08-19 01:41:00,1821E-3,5C000400,-0724,0822,12289,032.0,045.6,0.251,750.6,01.17,0.508
2015-08-19 01:42:00,1784E-3,5C000400,-0724,0822,12321,032.0,045.6,0.250,750.7,01.17,0.508
2015-08-19 01:43:00,1733E-3,5C000400,-0724,0821,12321,032.0,045.6,0.250,750.7,01.17,0.508
2015-08-19 01:44:00,1790E-3,5C000400,-0724,0821,12331,032.0,045.6,0.251,750.7,01.17,0.508
2015-08-19 01:45:00,1811E-3,5C000400,-0724,0821,12363,031.9,045.6,0.250,750.7,01.17,0.508
2015-08-19 01:46:00,1782E-3,5C000400,-0724,0819,12266,031.9,045.6,0.250,750.7,01.17,0.508
2015-08-19 01:47:00,1760E-3,5C000400,-0724,0820,12498,031.8,045.6,0.251,750.7,01.17,0.508
2015-08-19 01:48:00,1720E-3,5C000400,-0724,0821,12428,031.8,045.6,0.250,750.7,01.17,0.508
2015-08-19 01:49:00,1728E-3,5C000400,-0724,0821,12282,031.8,045.6,0.250,750.7,01.17,0.508
2015-08-19 01:50:00,1785E-3,5C000400,-0724,0821,12303,031.7,045.6,0.251,750.6,01.17,0.508
2015-08-19 01:51:00,1703E-3,5C000400,-0724,0820,12297,031.7,045.6,0.251,750.7,01.17,0.508
2015-08-19 01:52:00,1716E-3,5C000400,-0724,0821,12213,031.6,045.6,0.250,750.6,01.17,0.508
2015-08-19 01:53:00,1760E-3,5C000400,-0724,0821,12352,031.6,045.6,0.251,750.6,01.17,0.508
2015-08-19 01:54:00,1790E-3,5C000400,-0724,0820,12130,031.6,045.6,0.251,750.6,01.17,0.508
2015-08-19 01:55:00,1789E-3,5C000400,-0724,0821,12237,031.5,045.6,0.251,750.5,01.17,0.508
2015-08-19 01:56:00,1768E-3,5C000400,-0724,0820,12118,031.6,045.6,0.251,750.5,01.17,0.508
2015-08-19 01:57:00,1805E-3,5C000400,-0724,0820,12330,031.6,045.6,0.251,750.5,01.17,0.508
2015-08-19 01:58:00,1954E-3,5C000400,-0724,0821,12206,031.6,045.6,0.251,750.5,01.17,0.508
2015-08-19 01:59:00,1817E-3,5C000400,-0724,0821,12236,031.6,045.6,0.251,750.4,01.17,0.508
2015-08-19 02:00:00,1801E-3,5C000400,-0724,0822,12296,031.6,045.6,0.251,750.4,01.17,0.508
2015-08-19 02:01:00,1788E-3,5C000400,-0724,0821,12171,031.6,045.6,0.251,750.4,01.17,0.508
2015-08-19 02:02:00,1770E-3,5C000400,-0724,0821,12334,031.6,045.6,0.251,750.4,01.17,0.508
2015-08-19 02:03:00,1929E-3,5C000400,-0724,0822,12283,031.6,045.6,0.251,750.4,01.17,0.508
2015-08-19 02:04:00,1851E-3,5C000400,-0724,0822,12357,031.6,045.6,0.251,750.4,01.17,0.508
2015-08-19 02:05:00,1819E-3,5C000400,-0724,0821,12315,031.6,045.6,0.251,750.4,01.17,0.508
2015-08-19 02:06:00,1829E-3,5C000400,-0724,0821,12265,031.6,045.6,0.251,750.3,01.17,0.508
2015-08-19 02:07:00,1763E-3,5C000400,-0724,0821,12174,031.6,045.6,0.251,750.3,01.17,0.508
2015-08-19 02:08:00,1697E-3,5C000400,-0724,0821,12342,031.6,045.6,0.251,750.3,01.17,0.508
2015-08-19 02:09:00,1843E-3,5C000400,-0724,0820,12255,031.6,045.6,0.251,750.3,01.17,0.508
2015-08-19 02:10:00,1665E-3,5C000400,-0724,0821,12230,031.5,045.6,0.251,750.2,01.17,0.508
2015-08-19 02:11:00,1777E-3,5C000400,-0724,0820,12290,031.5,045.6,0.252,750.2,01.17,0.508
2015-08-19 02:12:00,1587E-3,5C000400,-0724,0821,12380,031.5,045.5,0.251,750.2,01.17,0.508
2015-08-19 02:13:00,1839E-3,5C000400,-0724,0821,12442,031.5,045.6,0.251,750.2,01.17,0.508
2015-08-19 02:14:00,1690E-3,5C000400,-0724,0821,12121,031.5,045.6,0.252,750.2,01.17,0.508
2015-08-19 02:15:00,1768E-3,5C000400,-0724,0821,12275,031.5,045.6,0.251,750.2,01.17,0.508
2015-08-19 02:16:00,1859E-3,5C000400,-0724,0821,12358,031.5,045.6,0.251,750.2,01.17,0.508
2015-08-19 02:17:00,1737E-3,5C000400,-0724,0822,12304,031.5,045.6,0.252,750.1,01.17,0.508
2015-08-19 02:18:00,1743E-3,5C000400,-0724,0821,12199,031.5,045.6,0.251,750.1,01.17,0.508
2015-08-19 02:19:00,1689E-3,5C000400,-0724,0821,12244,031.5,045.6,0.251,750.1,01.17,0.508
2015-08-19 02:20:00,1941E-3,5C000400,-0724,0821,12257,031.4,045.6,0.252,750.1,01.17,0.508
2015-08-19 02:21:00,1862E-3,5C000400,-0724,0821,12383,031.4,045.6,0.252,750.0,01.17,0.508
2015-08-19 02:22:00,1746E-3,5C000400,-0724,0821,12251,031.5,045.6,0.252,750.0,01.17,0.508
2015-08-19 02:23:00,1838E-3,5C000400,-0724,0821,12368,031.4,045.5,0.252,749.9,01.17,0.508
2015-08-19 02:24:00,1906E-3,5C000400,-0724,0821,12317,031.4,045.6,0.252,749.9,01.17,0.508
2015-08-19 02:25:00,1769E-3,5C000400,-0724,0821,12241,031.5,045.6,0.252,749.9,01.17,0.508
2015-08-19 02:26:00,1845E-3,5C000400,-0724,0821,11954,031.4,045.6,0.252,749.9,01.17,0.508
2015-08-19 02:27:00,1847E-3,5C000400,-0724,0821,12310,031.4,045.6,0.252,749.9,01.17,0.508
2015-08-19 02:28:00,1780E-3,5C000400,-0724,0821,12266,031.4,045.6,0.251,749.9,01.17,0.508
2015-08-19 02:29:00,1951E-3,5C000400,-0724,0821,12276,031.4,045.6,0.251,749.8,01.17,0.508
2015-08-19 02:30:00,1842E-3,5C000400,-0724,0821,12333,031.4,045.6,0.252,749.8,01.17,0.508
2015-08-19 02:31:00,1717E-3,5C000400,-0724,0821,12478,031.4,045.6,0.252,749.9,01.17,0.508
2015-08-19 02:32:00,2025E-3,5C000400,-0724,0821,12287,031.4,045.6,0.252,749.8,01.17,0.508
2015-08-19 02:33:00,1943E-3,5C000400,-0724,0821,12166,031.4,045.5,0.252,749.8,01.17,0.508
2015-08-19 02:34:00,1729E-3,5C000400,-0724,0821,12271,031.4,045.6,0.252,749.8,01.17,0.508
2015-08-19 02:35:00,1799E-3,5C000400,-0724,0820,12287,031.4,045.6,0.252,749.8,01.17,0.508
2015-08-19 02:36:00,1929E-3,5C000400,-0724,0821,12050,031.4,045.6,0.251,749.8,01.17,0.508
2015-08-19 02:37:00,1838E-3,5C000400,-0724,0822,12256,031.3,045.6,0.251,749.8,01.17,0.508
2015-08-19 02:38:00,1879E-3,5C000400,-0724,0820,12099,031.3,045.6,0.251,749.8,01.17,0.508
2015-08-19 02:39:00,1916E-3,5C000400,-0724,0822,12348,031.3,045.5,0.252,749.8,01.17,0.508
2015-08-19 02:40:00,1864E-3,5C000400,-0724,0820,12392,031.3,045.5,0.252,749.8,01.17,0.508
2015-08-19 02:41:00,1727E-3,5C000400,-0724,0821,12223,031.3,045.6,0.252,749.8,01.17,0.508
2015-08-19 02:42:00,1822E-3,5C000400,-0724,0821,12074,031.3,045.6,0.252,749.8,01.17,0.508
2015-08-19 02:43:00,1789E-3,5C000400,-0724,0821,12351,031.2,045.6,0.252,749.8,01.17,0.508
2015-08-19 02:44:00,1848E-3,5C000400,-0724,0821,12232,031.2,045.6,0.252,749.8,01.17,0.508
2015-08-19 02:45:00,1728E-3,5C000400,-0724,0821,12297,031.2,045.5,0.252,749.8,01.17,0.508
2015-08-19 02:46:00,1770E-3,5C000400,-0724,0820,12435,031.2,045.5,0.252,749.8,01.17,0.508
2015-08-19 02:47:00,1697E-3,5C000400,-0724,0821,12259,031.2,045.6,0.252,749.8,01.17,0.508
2015-08-19 02:48:00,1817E-3,5C000400,-0724,0821,12372,031.2,045.6,0.252,749.9,01.17,0.508
2015-08-19 02:49:00,1881E-3,5C000400,-0724,0822,12213,031.1,045.6,0.252,749.9,01.17,0.508
2015-08-19 02:50:00,1931E-3,5C000400,-0724,0821,12318,031.2,045.5,0.252,749.8,01.17,0.508
2015-08-19 02:51:00,1788E-3,5C000400,-0724,0821,12240,031.2,045.5,0.252,749.9,01.17,0.508
2015-08-19 02:52:00,1832E-3,5C000400,-0724,0821,12053,031.2,045.5,0.252,749.9,01.17,0.508
2015-08-19 02:53:00,1737E-3,5C000400,-0724,0822,12237,031.1,045.5,0.252,749.9,01.17,0.508
2015-08-19 02:54:00,1785E-3,5C000400,-0724,0821,12147,031.1,045.5,0.252,749.9,01.17,0.508
2015-08-19 02:55:00,1686E-3,5C000400,-0724,0821,12340,031.1,045.5,0.252,749.9,01.17,0.508
2015-08-19 02:56:00,1783E-3,5C000400,-0724,0820,12372,031.1,045.5,0.252,749.9,01.17,0.508
2015-08-19 02:57:00,1850E-3,5C000400,-0724,0821,12458,031.1,045.6,0.252,749.9,01.17,0.508
2015-08-19 02:58:00,1722E-3,5C000400,-0724,0821,12329,031.1,045.5,0.252,749.9,01.17,0.508
2015-08-19 02:59:00,1698E-3,5C000400,-0724,0822,12305,031.1,045.5,0.252,749.8,01.17,0.508
2015-08-19 03:00:00,1819E-3,5C000400,-0724,0821,12332,031.1,045.6,0.252,749.8,01.17,0.508
2015-08-19 03:01:00,1796E-3,5C000400,-0724,0820,12217,031.1,045.5,0.252,749.8,01.17,0.508
2015-08-19 03:02:00,1834E-3,5C000400,-0724,0821,12354,031.1,045.5,0.252,749.8,01.17,0.508
2015-08-19 03:03:00,1888E-3,5C000400,-0724,0820,12178,031.1,045.5,0.252,749.7,01.17,0.508
2015-08-19 03:04:00,1738E-3,5C000400,-0724,0821,12354,031.0,045.5,0.252,749.7,01.17,0.508
2015-08-19 03:05:00,1836E-3,5C000400,-0724,0821,12159,031.0,045.6,0.252,749.6,01.17,0.508
2015-08-19 03:06:00,1873E-3,5C000400,-0724,0821,12237,031.0,045.5,0.252,749.6,01.17,0.508
2015-08-19 03:07:00,1897E-3,5C000400,-0724,0820,12395,031.0,045.5,0.252,749.6,01.17,0.508
2015-08-19 03:08:00,1793E-3,5C000400,-0724,0822,12186,031.0,045.5,0.252,749.6,01.17,0.508
2015-08-19 03:09:00,1971E-3,5C000400,-0724,0821,12173,031.0,045.5,0.252,749.6,01.17,0.508
2015-08-19 03:10:00,1827E-3,5C000400,-0724,0820,12314,031.1,045.5,0.252,749.7,01.17,0.508
2015-08-19 03:11:00,1824E-3,5C000400,-0724,0820,12202,031.1,045.5,0.252,749.7,01.17,0.508
2015-08-19 03:12:00,1863E-3,5C000400,-0724,0821,12312,031.1,045.5,0.252,749.7,01.17,0.508
2015-08-19 03:13:00,1817E-3,5C000400,-0724,0821,12190,031.1,045.6,0.252,749.6,01.17,0.508
2015-08-19 03:14:00,1845E-3,5C000400,-0724,0820,12258,031.1,045.5,0.252,749.6,01.17,0.508
2015-08-19 03:15:00,1723E-3,5C000400,-0724,0821,12342,031.1,045.5,0.252,749.6,01.17,0.508
2015-08-19 03:16:00,1786E-3,5C000400,-0724,0821,12244,031.0,045.5,0.253,749.6,01.17,0.508
2015-08-19 03:17:00,1725E-3,5C000400,-0724,0821,12203,031.0,045.5,0.252,749.5,01.17,0.508
2015-08-19 03:18:00,1694E-3,5C000400,-0724,0821,12272,031.1,045.6,0.252,749.5,01.17,0.508
2015-08-19 03:19:00,1914E-3,5C000400,-0724,0821,12131,031.0,045.5,0.252,749.5,01.17,0.508
2015-08-19 03:20:00,1903E-3,5C000400,-0724,0821,12027,031.0,045.5,0.252,749.5,01.17,0.508
2015-08-19 03:21:00,1754E-3,5C000400,-0724,0820,12364,031.1,045.5,0.252,749.5,01.17,0.508
2015-08-19 03:22:00,1894E-3,5C000400,-0724,0821,12282,031.0,045.6,0.252,749.4,01.17,0.508
2015-08-19 03:23:00,1765E-3,5C000400,-0724,0821,12339,031.1,045.5,0.253,749.3,01.17,0.508
2015-08-19 03:24:00,1743E-3,5C000400,-0724,0821,12153,031.1,045.5,0.253,749.4,01.17,0.508
2015-08-19 03:25:00,1713E-3,5C000400,-0724,0821,12156,031.0,045.5,0.253,749.4,01.17,0.508
2015-08-19 03:26:00,1820E-3,5C000400,-0724,0820,12220,031.0,045.5,0.252,749.4,01.17,0.508
2015-08-19 03:27:00,1732E-3,5C000400,-0724,0820,12307,031.0,045.5,0.252,749.3,01.17,0.508
2015-08-19 03:28:00,1737E-3,5C000400,-0724,0821,12107,031.1,045.6,0.252,749.3,01.17,0.508
2015-08-19 03:29:00,1825E-3,5C000400,-0724,0821,12351,031.0,045.6,0.252,749.3,01.17,0.508
2015-08-19 03:30:00,1939E-3,5C000400,-0724,0821,12261,031.0,045.6,0.252,749.4,01.17,0.508
2015-08-19 03:31:00,1860E-3,5C000400,-0724,0821,12125,031.0,045.6,0.252,749.3,01.17,0.508
2015-08-19 03:32:00,1811E-3,5C000400,-0724,0821,12279,031.0,045.5,0.252,749.4,01.17,0.508
2015-08-19 03:33:00,1922E-3,5C000400,-0724,0821,12309,031.0,045.5,0.252,749.3,01.17,0.508
2015-08-19 03:34:00,1585E-3,5C000400,-0724,0821,12294,031.0,045.5,0.252,749.2,01.17,0.508
2015-08-19 03:35:00,1789E-3,5C000400,-0724,0820,12223,031.0,045.5,0.252,749.1,01.17,0.508
2015-08-19 03:36:00,1813E-3,5C000400,-0724,0821,12179,030.9,045.5,0.252,749.0,01.17,0.508
2015-08-19 03:37:00,1792E-3,5C000400,-0724,0820,12093,030.8,045.5,0.252,748.9,01.17,0.508
2015-08-19 03:38:00,1776E-3,5C000400,-0724,0821,12267,030.7,045.5,0.252,749.0,01.17,0.508
2015-08-19 03:39:00,1784E-3,5C000400,-0724,0820,12184,030.8,045.5,0.253,749.0,01.17,0.508
2015-08-19 03:40:00,1801E-3,5C000400,-0724,0821,12135,030.8,045.5,0.253,749.0,01.17,0.508
2015-08-19 03:41:00,1862E-3,5C000400,-0724,0821,12377,030.8,045.5,0.253,749.0,01.17,0.508
2015-08-19 03:42:00,1785E-3,5C000400,-0724,0821,12200,030.8,045.5,0.252,749.0,01.17,0.508
2015-08-19 03:43:00,1891E-3,5C000400,-0724,0821,12121,030.8,045.5,0.252,749.1,01.17,0.508
2015-08-19 03:44:00,1803E-3,5C000400,-0724,0822,12279,030.9,045.5,0.253,749.1,01.17,0.508
2015-08-19 03:45:00,1816E-3,5C000400,-0724,0820,12370,030.8,045.5,0.253,749.1,01.17,0.508
2015-08-19 03:46:00,1794E-3,5C000400,-0724,0821,12235,030.9,045.5,0.253,749.1,01.17,0.508
2015-08-19 03:47:00,1677E-3,5C000400,-0724,0821,12159,030.9,045.5,0.253,749.1,01.17,0.508
2015-08-19 03:48:00,1938E-3,5C000400,-0724,0820,12271,030.9,045.5,0.252,749.0,01.17,0.508
2015-08-19 03:49:00,1759E-3,5C000400,-0724,0820,12204,030.8,045.5,0.252,749.1,01.17,0.508
2015-08-19 03:50:00,1830E-3,5C000400,-0724,0821,12179,030.9,045.6,0.253,749.1,01.17,0.508
2015-08-19 03:51:00,1818E-3,5C000400,-0724,0821,12234,030.9,045.5,0.253,749.1,01.17,0.508
2015-08-19 03:52:00,1817E-3,5C000400,-0724,0821,12367,030.9,045.5,0.253,749.1,01.17,0.508
2015-08-19 03:53:00,1777E-3,5C000400,-0724,0821,12391,030.9,045.5,0.253,749.1,01.17,0.508
2015-08-19 03:54:00,1799E-3,5C000400,-0724,0820,12188,030.9,045.5,0.252,749.1,01.17,0.508
2015-08-19 03:55:00,1868E-3,5C000400,-0724,0821,12431,030.8,045.5,0.253,749.1,01.17,0.508
2015-08-19 03:56:00,1828E-3,5C000400,-0724,0821,12293,030.9,045.5,0.253,749.1,01.17,0.508
2015-08-19 03:57:00,1607E-3,5C000400,-0724,0822,12363,030.9,045.5,0.253,749.1,01.17,0.508
2015-08-19 03:58:00,1849E-3,5C000400,-0724,0820,12305,030.9,045.5,0.252,749.0,01.17,0.508
2015-08-19 03:59:00,1791E-3,5C000400,-0724,0821,12247,030.9,045.6,0.252,749.0,01.17,0.508
2015-08-19 04:00:00,1606E-3,5C000400,-0724,0821,12333,030.9,045.5,0.253,749.0,01.17,0.508
2015-08-19 04:01:00,1769E-3,5C000400,-0724,0820,12270,030.9,045.6,0.253,749.0,01.17,0.508
2015-08-19 04:02:00,1799E-3,5C000400,-0724,0820,12244,030.9,045.5,0.253,749.0,01.17,0.508
2015-08-19 04:03:00,1851E-3,5C000400,-0724,0821,12330,030.9,045.5,0.253,749.0,01.17,0.508
2015-08-19 04:04:00,1816E-3,5C000400,-0724,0821,12225,030.9,045.5,0.252,749.0,01.17,0.508
2015-08-19 04:05:00,1825E-3,5C000400,-0724,0821,12293,030.9,045.5,0.253,749.0,01.17,0.508
2015-08-19 04:06:00,1851E-3,5C000400,-0724,0821,12273,030.9,045.5,0.253,748.9,01.17,0.508
2015-08-19 04:07:00,1743E-3,5C000400,-0724,0821,12222,030.9,045.6,0.253,748.9,01.17,0.508
2015-08-19 04:08:00,1859E-3,5C000400,-0724,0820,12246,030.9,045.5,0.252,748.9,01.17,0.508
2015-08-19 04:09:00,1739E-3,5C000400,-0724,0820,12209,030.9,045.6,0.252,748.9,01.17,0.508
2015-08-19 04:10:00,1910E-3,5C000400,-0724,0820,12272,030.9,045.5,0.253,748.9,01.17,0.508
2015-08-19 04:11:00,1863E-3,5C000400,-0724,0821,12366,030.9,045.5,0.253,748.9,01.17,0.508
2015-08-19 04:12:00,1824E-3,5C000400,-0724,0821,12346,030.9,045.5,0.253,748.9,01.17,0.508
2015-08-19 04:13:00,1837E-3,5C000400,-0724,0821,12040,030.9,045.5,0.252,748.9,01.17,0.508
2015-08-19 04:14:00,1904E-3,5C000400,-0724,0820,12162,030.9,045.5,0.252,748.9,01.17,0.508
2015-08-19 04:15:00,1650E-3,5C000400,-0724,0821,12307,030.9,045.5,0.253,748.8,01.17,0.508
2015-08-19 04:16:00,1874E-3,5C000400,-0724,0821,12357,030.9,045.5,0.253,748.8,01.17,0.508
2015-08-19 04:17:00,1887E-3,5C000400,-0724,0822,12346,031.0,045.5,0.252,748.7,01.17,0.508
2015-08-19 04:18:00,1876E-3,5C000400,-0724,0821,12248,030.9,045.5,0.252,748.7,01.17,0.508
2015-08-19 04:19:00,1796E-3,5C000400,-0724,0820,12235,031.0,045.5,0.253,748.7,01.17,0.508
2015-08-19 04:20:00,1965E-3,5C000400,-0724,0820,12351,030.9,045.5,0.253,748.7,01.17,0.508